{"data":{"norad_id":65818,"intl_designator":"2025-220B","name":"HULIANWANG DIGUI-83","alt_names":[],"object_type":"PAYLOAD","status":"ACTIVE","operator":null,"country":"PRC","launch_date":"2025-09-27","launch_site_code":"TAISC","launch_vehicle":null,"mission":null,"orbit_class":"UNKNOWN","rcs_meters":null,"size_class":null,"mass_kg":null,"dimensions":null,"purposes":[],"wikipedia_slug":null,"has_3d_model":false,"image_url":null,"decayed_at":null,"tle_current":{"epoch":"2026-09-20T13:46:58.865088Z","epoch_age_seconds":140366,"freshness":"FRESH","line1":"1 65818U 25220B   26263.57429242  .00000047  00000+0  75799-4 0  9994","line2":"2 65818  86.5059  11.7309 0001283  89.8036 270.3245 13.24411651 47543","mean_motion":13.24411651,"eccentricity":0.0001283,"inclination_deg":86.5059,"raan_deg":11.7309,"arg_perigee_deg":89.8036,"mean_anomaly_deg":270.3245,"bstar":7.5799e-5,"rev_number":4754,"period_min":108.72752432469,"perigee_km":1166.9477558022,"apogee_km":1168.88407298,"semimajor_km":7546.0529143911,"source":"CELESTRAK","updated_at":"2026-09-21T09:00:15.571689Z"}}}